Reno, NV

4:17 PM PDT on July 24, 2017 (GMT -0700)
Reno-Tahoe International

Weather History for KRNO - January, 2013

Change the Weather History Date:

Friday, January 18, 2013

  Actual Average Record
Temperature  
Mean Temperature 27 °F 36 °F  
Max Temperature 36 °F 46 °F 66 °F (2015)
Min Temperature 17 °F 26 °F -4 °F (1949)
Degree Days  
Heating Degree Days 38 29  
Month to date heating degree days 707 540  
Since 1 July heating degree days 2383 2564  
Cooling Degree Days 0 0  
Month to date cooling degree days 0 0  
Year to date cooling degree days 0 0  
Moisture  
Dew Point 17 °F    
Average Humidity 72    
Maximum Humidity 92    
Minimum Humidity 52    
Precipitation  
Precipitation T in 0.03 in 0.77 in (1951)
Month to date precipitation 0.05 0.66  
Year to date precipitation 0.05 0.66  
Snow  
Snow T in 0.20 in 7.40 in (1951)
Month to date snowfall 0.6 4.0  
Since 1 July snowfall 8.6 12.4  
Snow Depth 0.00 in    
Sea Level Pressure  
Sea Level Pressure 30.50 in    
Wind  
Wind Speed 2 mph (South)    
Max Wind Speed 6 mph    
Max Gust Speed 10 mph    
Visibility 4 miles    
Events Fog    
T = Trace of Precipitation, MM = Missing Value Source: NWS Daily Summary

Daily Weather History Graph

Daily Weather History Graph

Search for Another Location

Airport or City:

Trip Planner

Search our weather history database for the weather conditions in past years. The results will help you decide how hot, cold, wet, or windy it might be!

Date:

Astronomy

Jan. 18, 2013 Rise Set
Actual Time 7:16 AM PST 5:03 PM PST
Civil Twilight 6:46 AM PST 5:32 PM PST
Nautical Twilight 6:14 AM PST 6:05 PM PST
Astronomical Twilight 5:41 AM PST 6:37 PM PST
Moon 10:59 AM PST (1/18) No Moon Set
Length of Visible Light 10h 45m
Length of Day
9h 47m
Waxing Crescent, 48% of the Moon is Illuminated
Jan 18
Waxing Crescent
Jan 18
First Quarter
Jan 26
Full
Feb 3
Last Quarter
Feb 9
New

Hourly Weather History & Observations

Time (PST) Temp. Windchill Dew Point Humidity Pressure Visibility Wind Dir Wind Speed Gust Speed Precip Events Conditions
12:55 AM 19.9 °F - 16.0 °F 85% 30.56 in 8.0 mi Calm Calm - N/A   Clear
1:05 AM 19.4 °F 14.3 °F 15.8 °F 86% 30.46 in 2.0 mi ENE 3.5 mph - N/A   Partly Cloudy
1:27 AM 19.4 °F - 19.4 °F 100% 30.46 in 0.2 mi Calm Calm - N/A Fog Light Freezing Fog
1:55 AM 21.0 °F - 19.0 °F 92% 30.53 in 0.2 mi Calm Calm - N/A Fog Light Freezing Fog
2:55 AM 21.0 °F 16.2 °F 19.0 °F 92% 30.52 in 0.2 mi NW 3.5 mph - N/A Fog Light Freezing Fog
3:21 AM 19.4 °F 14.3 °F 17.6 °F 93% 30.45 in 0.5 mi WNW 3.5 mph - N/A Fog Light Freezing Fog
3:55 AM 19.0 °F 13.9 °F 16.0 °F 88% 30.51 in 0.5 mi West 3.5 mph - N/A Fog Light Freezing Fog
4:02 AM 17.6 °F 12.3 °F 15.8 °F 93% 30.44 in 1.0 mi West 3.5 mph - N/A   Overcast
4:30 AM 19.4 °F - 15.8 °F 86% 30.44 in 0.5 mi Calm Calm - N/A   Overcast
4:55 AM 18.0 °F 12.7 °F 15.1 °F 88% 30.51 in 0.5 mi WSW 3.5 mph - N/A   Overcast
5:55 AM 17.1 °F 10.0 °F 15.1 °F 92% 30.53 in 0.2 mi South 4.6 mph - N/A Fog Light Freezing Fog
6:44 AM 17.6 °F 10.7 °F 15.8 °F 93% 30.44 in 0.5 mi SSE 4.6 mph - 0.00 in Fog Light Freezing Fog
6:55 AM 17.1 °F 11.7 °F 15.1 °F 92% 30.54 in 0.5 mi SSE 3.5 mph - 0.00 in Fog Light Freezing Fog
7:23 AM 17.6 °F 12.3 °F 15.8 °F 93% 30.45 in 0.2 mi South 3.5 mph - N/A Fog Light Freezing Fog
7:55 AM 18.0 °F - 16.0 °F 92% 30.55 in 0.2 mi Calm Calm - N/A Fog Light Freezing Fog
8:55 AM 18.0 °F 12.7 °F 16.0 °F 92% 30.58 in 0.2 mi South 3.5 mph - N/A   Overcast
9:18 AM 17.6 °F - 15.8 °F 93% 30.48 in 0.8 mi Calm Calm - N/A   Overcast
9:55 AM 19.0 °F 13.9 °F 17.1 °F 92% 30.59 in 0.8 mi ESE 3.5 mph - N/A   Overcast
10:18 AM 19.4 °F - 17.6 °F 93% 30.49 in 1.5 mi Calm Calm - N/A   Mostly Cloudy
10:34 AM 19.4 °F - 17.6 °F 93% 30.48 in 1.5 mi Calm Calm - N/A   Mostly Cloudy
10:45 AM 19.4 °F 14.3 °F 17.6 °F 93% 30.48 in 2.0 mi ESE 3.5 mph - N/A   Mostly Cloudy
10:55 AM 19.9 °F - 17.1 °F 89% 30.58 in 2.0 mi Calm Calm - N/A   Mostly Cloudy
11:09 AM 19.4 °F 14.3 °F 17.6 °F 93% 30.47 in 3.0 mi ENE 3.5 mph - N/A   Mostly Cloudy
11:31 AM 21.2 °F - 17.6 °F 86% 30.46 in 4.0 mi Calm Calm - N/A   Scattered Clouds
11:55 AM 21.9 °F - 18.0 °F 85% 30.55 in 5.0 mi Calm Calm - N/A   Partly Cloudy
12:55 PM 26.1 °F - 19.0 °F 75% 30.51 in 6.0 mi Calm Calm - N/A   Haze
1:55 PM 32.0 °F - 19.9 °F 61% 30.47 in 7.0 mi Calm Calm - N/A   Clear
2:55 PM 35.1 °F - 19.9 °F 54% 30.45 in 7.0 mi Calm Calm - N/A   Clear
3:55 PM 35.1 °F - 19.9 °F 54% 30.46 in 8.0 mi Calm Calm - N/A   Clear
4:55 PM 34.0 °F - 19.9 °F 56% 30.47 in 9.0 mi Calm Calm - N/A   Clear
5:55 PM 30.0 °F 26.5 °F 19.9 °F 66% 30.49 in 10.0 mi East 3.5 mph - N/A   Clear
6:55 PM 28.9 °F - 19.0 °F 67% 30.51 in 10.0 mi Calm Calm - N/A   Clear
7:55 PM 28.0 °F 24.2 °F 19.9 °F 72% 30.51 in 10.0 mi NW 3.5 mph - N/A   Clear
8:55 PM 26.1 °F - 19.0 °F 75% 30.53 in 10.0 mi Calm Calm - N/A   Clear
9:55 PM 24.1 °F - 17.1 °F 75% 30.53 in 10.0 mi Calm Calm - N/A   Clear
10:55 PM 21.9 °F - 16.0 °F 78% 30.54 in 10.0 mi Calm Calm - N/A   Clear
11:55 PM 21.9 °F 17.2 °F 16.0 °F 78% 30.54 in 8.0 mi WNW 3.5 mph - N/A   Clear